Location: Kergador
(48.4199°N, 4.7756°W)
Time: 20:29:05
(UTC+00:00)

Daily predictions for brighter satellites

Satellite Brightness Start Highest point End
(mag) Time Altitude Azimuth Time Altitude Azimuth Time Altitude Azimuth
CZ-2C R/B 3.0 19:24:58 10° SSE 19:29:43 56° ENE 19:34:22 10° N
Cosmos 1437 2.6 19:28:04 10° N 19:31:05 60° ENE 19:34:04 10° SSE
Cosmos 2251 Rocket 3.7 19:30:36 10° SSW 19:35:59 84° WNW 19:41:25 10° NNE
Cosmos 1908 4.0 19:33:38 10° SSE 19:37:02 30° E 19:40:29 10° NNE
SL-08 RB Rocket 4.1 19:33:25 10° SE 19:37:45 45° ENE 19:42:09 10° N
CZ-4 R/B 4.1 19:35:15 10° SW 19:38:16 22° W 19:41:17 10° NW
MONITOR-E 3.9 19:37:38 10° SSE 19:40:12 54° ENE 19:42:49 10° N
USA 234 4.5 19:39:27 10° E 19:43:33 17° ESE 19:47:37 10° SSE
ATLAS 2AS CENTAUR R/B 2.9 19:36:12 10° NW 19:43:56 77° NE 19:50:59 10° SE
STARLINK-1228 3.2 19:41:26 10° WNW 19:44:18 50° NNE 19:46:55 12° E
STARLINK-1236 4.5 19:40:23 10° WNW 19:44:22 44° N 19:48:21 10° E
SeaSat 1 2.8 19:39:53 10° NNE 19:44:49 73° WNW 19:49:44 10° SW
Cosmos 1943 3.2 19:40:49 10° SSW 19:46:29 80° ESE 19:52:12 10° NNE
Ariane Rocket 3.2 19:42:48 10° SSE 19:47:52 80° WSW 19:52:58 10° NNW
CZ-4C R/B 4.3 19:43:19 10° NW 19:48:19 23° NNE 19:53:59 10° ENE
Cosmos 1953 2.6 19:44:30 10° SSW 19:48:27 74° W 19:52:27 10° N
Cosmos 1140 Rocket 4.2 19:47:04 10° SSE 19:51:33 30° E 19:56:01 10° NE
Cosmos 1726 2.1 19:48:17 10° S 19:52:02 89° E 19:55:47 10° N
IRIDIUM 104 4.4 19:47:14 10° N 19:52:29 87° W 19:57:42 10° S
Cosmos 1656 Rocket 3.8 19:48:02 10° NNW 19:53:45 84° WSW 19:59:19 10° SSE
STARLINK-1269 4.4 19:50:22 10° WNW 19:54:22 45° N 19:58:20 10° E
Cosmos 1190 Rocket 4.5 19:52:59 10° S 19:57:53 39° ESE 20:02:48 10° NE
Meteor 1-11 4.3 19:52:25 10° N 19:58:09 61° ENE 20:03:46 10° SSE
Cosmos 2058 Rocket 3.7 19:54:48 10° SSE 19:58:56 37° E 20:03:06 10° NNE
STARLINK-1200 4.4 19:55:21 10° WNW 19:59:22 46° N 20:03:07 11° E
Cosmos 2184 Rocket 4.1 19:53:12 10° N 19:59:32 87° W 20:05:46 10° S
COSMOS 2455 3.2 19:54:18 10° NNW 20:00:12 52° NE 20:05:12 14° ESE
Meteor 2-10 4.3 19:55:15 10° SSW 20:00:44 85° WNW 20:06:27 10° N
CZ-2C R/B 3.2 19:56:45 10° NNE 20:01:24 32° E 20:06:01 10° SSE
FREGAT/IRIS 3.0 19:58:53 10° S 20:01:33 55° W 20:04:15 10° NNW
MetOp-A 4.3 19:56:37 10° SSE 20:01:51 59° ENE 20:07:08 10° N
Cosmos 614 Rocket 4.0 19:58:38 10° S 20:03:46 61° ESE 20:08:54 10° NNE
STARLINK-1192 4.4 20:00:21 10° WNW 20:04:23 47° N 20:07:54 13° E
Cosmos 1726 Rocket 3.5 20:02:25 10° S 20:06:48 67° E 20:11:14 10° NNE
ARGOS 3.4 20:02:51 10° S 20:08:14 75° WSW 20:13:38 10° NNW
STARLINK-1244 4.3 20:05:20 10° WNW 20:09:22 48° N 20:12:41 14° E
ERBS 3.9 20:07:05 10° NW 20:10:03 27° NNE 20:12:22 14° ENE
USA 186 2.8 20:07:16 10° S 20:10:29 47° W 20:13:34 10° NNW
Resurs 01 Rocket 2.1 20:08:30 15° SE 20:11:47 42° ENE 20:15:58 10° N
SL-24 R/B 3.9 20:08:35 10° NNE 20:12:38 56° E 20:16:20 10° S
Cosmos 1825 Rocket 4.1 20:08:34 10° NNW 20:12:55 60° W 20:17:11 10° S
BREEZE-M DEB (TANK) 1.7 20:08:46 10° WSW 20:13:39 83° S 20:15:11 20° ENE
ATLAS CENTAUR R/B 3.8 20:12:29 10° N 20:13:40 11° NNE 20:14:50 10° NE
STARLINK-1138 4.3 20:10:20 10° WNW 20:14:23 49° NNE 20:17:28 16° E
APEX 4.4 20:11:12 10° NNW 20:17:51 82° WSW 20:22:48 13° SSE
Meteor 2-17 Rocket 4.4 20:11:44 10° N 20:17:55 85° E 20:24:06 10° S
STARLINK-1234 2.8 20:15:06 10° WNW 20:18:11 77° NNE 20:19:38 28° ESE
STARLINK-1233 3.1 20:15:13 10° WNW 20:18:21 64° NNE 20:19:56 26° E
STARLINK-1212 3.1 20:15:41 10° WNW 20:18:48 64° NNE 20:20:22 26° E
Cosmos 921 Rocket 3.0 20:14:49 10° NNW 20:18:58 59° ENE 20:21:45 20° SE
STARLINK-1105 3.1 20:16:07 10° WNW 20:19:15 64° NNE 20:20:48 26° E
STARLINK-1209 2.7 20:16:14 10° WNW 20:19:17 82° NNE 20:20:40 29° ESE
STARLINK-1143 4.2 20:15:18 10° WNW 20:19:22 51° NNE 20:22:15 18° E
STARLINK-1206 3.0 20:16:36 10° WNW 20:19:43 64° NNE 20:21:13 27° E
STARLINK-1247 3.0 20:17:03 10° WNW 20:20:10 65° NNE 20:21:39 27° E
STARLINK-1227 3.0 20:17:28 10° WNW 20:20:36 65° NNE 20:22:06 27° E
Nadezhda 1 Rocket 4.0 20:14:36 10° S 20:21:00 83° E 20:27:22 10° N
STARLINK-1218 3.0 20:17:58 10° WNW 20:21:05 66° NNE 20:22:31 28° E
STARLINK-1226 3.0 20:18:24 10° WNW 20:21:31 66° NNE 20:22:58 28° E
STARLINK-1254 3.0 20:18:49 10° WNW 20:21:58 67° NNE 20:23:24 28° E
Cosmos 2154 Rocket 4.0 20:15:47 10° N 20:22:11 90° WSW 20:28:31 10° S
STARLINK-1215 3.0 20:19:19 10° WNW 20:22:26 67° NNE 20:23:49 29° E
STARLINK-1231 3.0 20:19:45 10° WNW 20:22:53 67° NNE 20:24:15 29° E
STARLINK-1232 3.0 20:20:40 10° WNW 20:23:48 68° NNE 20:25:08 30° E
STARLINK-1217 3.0 20:21:06 10° WNW 20:24:14 68° NNE 20:25:33 31° E
STARLINK-1241 4.2 20:20:20 10° WNW 20:24:24 52° NNE 20:27:03 20° E
STARLINK-1208 3.0 20:21:32 10° WNW 20:24:40 69° NNE 20:26:00 31° E
SL-8 Rocket 4.4 20:19:01 10° N 20:25:02 44° ENE 20:29:12 19° SE
BREEZE-M DEB (TANK) 3.6 20:19:08 10° WNW 20:25:06 61° SSW 20:26:31 28° SE
STARLINK-1229 2.9 20:22:00 10° WNW 20:25:08 69° NNE 20:26:25 31° E
Cosmos 2228 3.4 20:21:02 10° SSW 20:25:19 68° WNW 20:29:40 10° N
Cosmos 407 Rocket 3.4 20:20:17 10° SSW 20:25:25 77° ESE 20:30:34 10° NNE
STARLINK-1271 2.9 20:22:27 10° WNW 20:25:35 70° NNE 20:26:52 32° E
SL-24 R/B - RUBIN 2 4.2 20:20:24 10° SSW 20:25:58 68° ESE 20:32:16 10° NE
STARLINK-1270 2.9 20:22:55 10° WNW 20:26:03 70° NNE 20:27:17 32° E
STARLINK-1154 2.9 20:23:21 10° WNW 20:26:29 71° NNE 20:27:43 33° E
Cosmos 676 Rocket 4.4 20:21:42 10° S 20:26:39 42° ESE 20:31:34 10° NE
STARLINK-1197 2.9 20:24:16 10° WNW 20:27:24 71° NNE 20:28:36 34° E
STARLINK-1189 2.9 20:24:43 10° WNW 20:27:50 72° NNE 20:29:02 34° E
STARLINK-1198 2.9 20:25:10 10° WNW 20:28:17 72° NNE 20:29:27 35° E
STARLINK-1188 2.9 20:25:37 10° WNW 20:28:45 73° NNE 20:29:53 35° E
Cosmos 1980 Rocket 4.3 20:26:10 10° N 20:28:54 13° NNE 20:31:37 10° ENE
Cosmos 1461 3.2 20:24:25 10° NW 20:28:57 79° SW 20:32:00 21° SSE
ERS-1 Rocket 4.5 20:27:20 17° E 20:29:11 21° ENE 20:32:53 10° NNE
STARLINK-1239 4.1 20:25:16 10° WNW 20:29:21 54° NNE 20:31:48 22° E
STARLINK-1235 2.8 20:26:15 10° WNW 20:29:25 87° NNE 20:30:32 37° ESE
STARLINK-1187 2.8 20:26:41 10° WNW 20:29:51 81° NNE 20:30:59 37° ESE
SPOT 3 Rocket 3.7 20:25:11 10° SSE 20:30:24 78° WSW 20:35:39 10° NNW
STARLINK-1199 2.9 20:27:33 10° WNW 20:30:42 75° NNE 20:31:48 37° ESE
STARLINK-29 3.4 20:27:57 10° SW 20:30:57 38° SE 20:31:20 36° SE
STARLINK-1191 2.9 20:28:01 10° WNW 20:31:10 75° NNE 20:32:15 37° ESE
STARLINK-1210 2.9 20:28:27 10° WNW 20:31:36 76° NNE 20:32:40 38° ESE
Cosmos 1892 4.2 20:28:38 10° NNE 20:31:37 21° ENE 20:32:00 20° ENE
STARLINK-1221 2.9 20:28:55 10° WNW 20:32:04 76° NNE 20:33:07 38° ESE
SJ-6B 4.0 20:28:11 10° S 20:32:08 44° W 20:36:07 10° NNW
STARLINK-1219 2.9 20:29:21 10° WNW 20:32:30 77° NNE 20:33:32 39° ESE
STARLINK-1222 2.9 20:29:48 10° WNW 20:32:57 77° NNE 20:33:58 39° ESE
STARLINK-60 2.8 20:29:49 10° WSW 20:33:06 78° SSE 20:34:54 24° ENE
STARLINK-1211 2.8 20:30:16 10° WNW 20:33:25 78° NNE 20:34:24 40° ESE
STARLINK-1214 2.8 20:30:42 10° WNW 20:33:52 78° NNE 20:34:50 41° ESE
STARLINK-1245 2.8 20:31:12 10° WNW 20:34:20 79° NNE 20:35:16 42° ESE
STARLINK-1240 4.0 20:30:17 10° WNW 20:34:22 56° NNE 20:36:36 25° E
Cosmos 1953 Rocket 4.4 20:30:16 10° NNW 20:34:39 53° W 20:39:00 10° S
STARLINK-1238 2.8 20:31:37 10° WNW 20:34:46 79° NNE 20:35:43 42° ESE
SPOT 5 4.4 20:34:13 15° ENE 20:35:04 16° ENE 20:37:45 10° NNE
STARLINK-1205 2.8 20:32:33 10° WNW 20:35:41 80° NNE 20:36:34 43° ESE
STARLINK-1204 2.8 20:33:00 10° WNW 20:36:08 81° NNE 20:36:59 44° ESE
Aureole 1 Rocket 4.1 20:29:00 10° SSW 20:36:30 87° WNW 20:42:19 10° NNE
Cosmos 2366 rocket 4.4 20:32:05 10° N 20:37:56 43° ENE 20:41:05 25° SE
STARLINK-1216 4.0 20:35:16 10° WNW 20:39:22 58° NNE 20:41:24 28° E
Cosmos 1825 4.5 20:40:07 10° NE 20:41:04 11° ENE 20:41:04 11° ENE
ATLAS 5 CENTAUR R/B 1.4 20:37:59 10° SSW 20:42:08 75° SE 20:46:51 10° NE
Abrixas rocket 2.0 20:39:50 10° W 20:42:45 60° SSW 20:43:05 55° SSE
Terra 3.6 20:42:27 16° ENE 20:43:27 17° ENE 20:46:28 10° NNE
STARLINK-1237 3.9 20:40:14 10° WNW 20:44:21 60° NNE 20:46:09 31° E
STARLINK-1202 3.9 20:45:14 10° WNW 20:49:22 63° NNE 20:50:57 34° E
Cosmos 1954 Rocket 3.9 20:44:28 10° S 20:49:37 62° ESE 20:54:47 10° NNE
Cosmos 2058 3.4 20:46:16 10° N 20:50:09 40° ENE 20:50:47 37° E
Cosmos 1023 Rocket 4.4 20:45:32 10° SSW 20:50:43 87° WNW 20:55:54 10° NNE
RESURS DK-1 3.9 20:49:07 10° N 20:52:25 22° NE 20:53:17 20° ENE
FALCON 9 DEB 3.2 20:50:19 10° SW 20:53:39 55° SSE 20:53:39 55° SSE
Cosmos 1300 2.5 20:52:16 29° S 20:54:08 76° E 20:57:58 10° NNE
SPOT 1/Viking Rocket 4.1 20:52:38 31° ESE 20:54:22 41° ENE 20:59:16 10° N
SL-4 R/B 1.8 20:53:39 10° W 20:57:02 65° NNW 20:58:16 35° NE
STARLINK-1201 2.8 20:54:32 10° WNW 20:57:48 77° SSW 20:58:00 73° SSE
STARLINK-67 4.2 20:55:44 10° W 20:57:33 25° WSW 20:57:33 25° WSW
Cosmos 1076 Rocket 3.7 20:54:05 10° N 20:58:16 50° ENE 20:59:02 44° ESE
STARLINK-1246 3.7 20:55:13 10° WNW 20:59:21 68° NNE 21:00:32 44° E
Cosmos 1340 Rocket 3.7 20:55:36 10° SSW 20:59:33 51° WNW 21:03:30 10° N
In-Cosmos 22 Rocket 4.3 20:53:53 10° N 20:59:43 65° ENE 21:02:23 33° SSE
STARLINK-1203 3.7 20:56:03 10° WNW 21:00:16 73° NNE 21:01:25 45° E
MOS 1 Rocket 3.8 20:56:02 10° N 21:01:25 77° WNW 21:06:51 10° SSW
STARLINK-1224 3.7 21:00:10 10° WNW 21:04:20 72° NNE 21:05:18 49° E
H-2A R/B 4.4 21:02:57 10° SW 21:06:46 21° W 21:10:33 10° NW
Cosmos 1763 Rocket 3.8 21:04:11 10° NNW 21:09:16 50° ENE 21:10:29 41° ESE
STARLINK-1225 3.6 21:05:10 10° WNW 21:09:20 75° NNE 21:10:06 56° E
SAR-Lupe-2 3.4 21:07:17 10° NNE 21:10:53 82° ESE 21:11:07 75° SSE
STARLINK-52 4.3 21:08:14 10° SW 21:10:02 30° SW 21:10:02 30° SW
STARLINK-1230 3.5 21:10:10 10° WNW 21:14:19 79° NNE 21:14:53 64° E
BREEZE M DEB (TANK) 3.3 21:12:01 10° SW 21:15:34 58° SE 21:26:18 10° ENE
MetOp-B 4.1 21:14:22 33° S 21:16:52 81° WSW 21:22:16 10° NNW
Cosmos 540 Rocket 4.4 21:13:53 10° N 21:18:33 33° NE 21:19:20 31° ENE
STARLINK-1243 3.5 21:15:08 10° WNW 21:19:18 83° NNE 21:19:39 73° E
Cosmos 1174 4.0 21:15:23 10° NNW 21:19:28 77° NE 21:20:14 60° ESE
Cosmos-2242 4.4 21:21:21 26° NE 21:21:21 26° NE 21:23:50 10° NNE
COSMOS 2406 3.9 21:21:00 34° E 21:21:00 34° E 21:25:15 10° NE
Meteor 2-10 Rocket 4.2 21:23:20 36° E 21:23:20 36° E 21:27:50 10° NNE
SL-08 R/B 4.5 21:17:10 10° N 21:23:16 63° ENE 21:25:05 44° SE
STARLINK-1236 3.4 21:20:06 10° WNW 21:24:16 87° NNE 21:24:26 82° E
Iridium 4 Rocket 2.8 21:20:18 10° N 21:24:32 80° E 21:24:45 76° SE
STPSAT 2 (USA 217) 4.4 21:26:05 49° SSW 21:27:16 84° ESE 21:31:47 10° NNE
USA 234 3.2 21:21:01 10° ENE 21:27:29 60° SE 21:33:56 10° SW
USA 32 4.1 21:25:39 10° N 21:30:48 56° E 21:31:15 54° E
ATLAS 2AS CENTAUR R/B 4.3 21:28:00 10° NW 21:34:11 29° WSW 21:38:49 15° SSW
STARLINK-1269 3.6 21:30:03 10° WNW 21:33:59 78° W 21:33:59 78° W
Cosmos 1408 3.6 21:34:09 10° N 21:36:38 38° NNE 21:36:38 38° NNE
Landsat 7 3.8 21:37:50 61° SSW 21:38:37 77° WSW 21:43:24 10° NNW
CZ-4C R/B 3.5 21:32:07 10° NW 21:38:37 44° NE 21:42:00 29° E
Spot 2 Rocket 3.9 21:37:05 39° SSW 21:38:46 60° W 21:43:50 10° NNW
STARLINK-1200 3.8 21:35:02 10° WNW 21:38:46 69° W 21:38:46 69° W
Cosmos 2369 4.1 21:33:49 10° NNW 21:39:16 47° NE 21:40:06 44° E
Cosmos 1850 Rocket 3.8 21:39:34 68° ESE 21:39:44 68° ESE 21:44:54 10° NNE
Meteor 2-1 Rocket 4.2 21:38:43 39° S 21:41:02 87° E 21:47:02 10° NNE
CZ-2C R/B 3.9 21:36:59 10° N 21:41:46 39° WNW 21:46:33 10° SW
CARTOSAT-1 3.7 21:43:22 65° NE 21:43:22 65° NE 21:47:19 10° N
IGS 5A 3.6 21:43:20 67° WSW 21:43:22 67° W 21:47:30 10° NNW
STARLINK-1192 4.0 21:40:02 10° WNW 21:43:33 60° W 21:43:33 60° W
Cosmos 1697 Rocket 3.0 21:39:32 10° NNW 21:45:06 52° NE 21:45:47 49° E
Cosmos 1356 Rocket 4.4 21:46:43 40° NE 21:46:43 40° NE 21:49:35 10° NNE
COSMOS 2455 4.0 21:40:34 10° NW 21:45:58 35° WSW 21:48:21 26° SSW
ERBS 3.9 21:43:15 10° WNW 21:45:20 34° WNW 21:45:20 34° WNW
Cosmos 841 Rocket 3.6 21:41:24 10° NNW 21:46:39 58° ENE 21:46:53 58° ENE
Resurs 01 Rocket 3.7 21:46:03 15° SW 21:48:27 23° W 21:51:59 10° NW
STARLINK-1244 4.2 21:45:00 10° WNW 21:48:20 53° W 21:48:20 53° W
Mayak 1.2 21:47:13 10° NE 21:47:46 13° NE 21:47:46 13° NE
Okean 3 Rocket 3.9 21:46:19 10° N 21:50:04 57° NNE 21:50:04 57° NNE
BREEZE M DEB (TANK) 3.6 21:47:46 10° WSW 21:52:39 50° W 21:52:39 50° W
ATLAS CENTAUR R/B 2.6 21:50:06 10° NNW 21:52:56 32° NNE 21:52:56 32° NNE
STARLINK-1138 4.4 21:49:59 10° WNW 21:53:07 47° W 21:53:07 47° W
Cosmos 1766 Rocket 4.1 21:51:21 10° N 21:54:58 52° NNE 21:54:58 52° NNE
Cosmos 468 Rocket 4.2 21:52:33 10° NNW 21:57:37 57° WSW 21:58:10 54° SW
Cosmos 1570 Rocket 3.9 21:56:51 10° NNW 22:02:15 89° WSW 22:02:21 87° S
SL-16 R/B 4.1 21:58:42 10° N 22:02:40 19° NE 22:04:14 17° ENE
Cosmos 1455 3.8 22:05:04 31° N 22:05:04 31° N 22:07:12 10° N
Cosmos 1892 4.2 22:03:51 10° NNW 22:07:00 34° WNW 22:07:00 34° WNW
ERS-1 Rocket 3.1 22:07:19 63° WSW 22:07:32 64° WSW 22:12:32 10° NNW
Cosmos 2322 Rocket 4.1 22:07:12 10° N 22:11:04 18° NE 22:12:34 17° ENE
Meteor 2-3 Rocket 4.0 22:05:37 10° N 22:11:01 55° ENE 22:11:01 55° ENE
Cosmos 1656 3.8 22:06:27 10° NNW 22:12:05 64° WSW 22:12:23 63° SW
SPOT 5 3.2 22:13:27 54° NW 22:13:27 54° NW 22:17:02 10° NNW
Cosmos 1980 Rocket 2.6 22:08:53 10° NNW 22:14:19 49° NE 22:14:19 49° NE
Cosmos 1825 3.8 22:13:40 10° NNW 22:15:53 33° NNW 22:15:53 33° NNW
Terra 2.2 22:21:20 63° NW 22:21:20 63° NW 22:25:26 10° NNW
ATLAS 5 CENTAUR R/B 3.9 22:23:38 10° W 22:27:20 25° NNW 22:31:29 10° NNE
Cosmos 2151 4.3 22:23:25 10° NNW 22:26:27 37° NW 22:26:27 37° NW
RESURS DK-1 4.0 22:26:41 10° NW 22:29:11 32° WNW 22:29:11 32° WNW
Cosmos 2360 4.3 22:29:38 10° NNW 22:34:51 74° N 22:34:51 74° N
Nadezhda 3 Rocket 4.0 22:35:02 68° SW 22:35:41 74° W 22:42:00 10° N
Cosmos 1535 Rocket 4.4 22:34:20 10° N 22:40:18 83° NNE 22:40:18 83° NNE
Cosmos 2278 3.8 22:35:52 10° NNW 22:40:53 70° NNW 22:40:53 70° NNW
Cosmos 2082 Rocket 3.3 22:45:47 34° NE 22:45:47 34° NE 22:49:01 10° NNE
Cosmos 1833 Rocket 3.1 22:55:21 59° N 22:55:21 59° N 22:59:58 10° NNE
Cosmos 2344 4.3 22:45:20 10° NW 22:54:43 82° NE 22:58:33 51° SE
COSMOS 2406 4.2 23:02:57 37° W 23:04:18 43° NW 23:09:46 10° NNE
Cosmos 1934 Rocket 4.3 23:03:21 10° NNW 23:09:09 58° WNW 23:09:09 58° WNW
USA 234 3.6 23:04:07 10° NE 23:10:32 61° NNW 23:16:57 10° W
Cosmos 1605 Rocket 4.3 23:18:00 10° NNW 23:23:16 61° NW 23:23:16 61° NW
Mayak 1.0 23:22:27 10° N 23:24:21 23° NNW 23:24:21 23° NNW
CZ-4C R/B 3.0 23:20:32 10° NW 23:27:10 65° WSW 23:27:10 65° WSW
Cosmos 1697 Rocket 4.3 23:23:58 10° NW 23:27:31 27° W 23:27:31 27° W
SL-16 R/B 3.0 23:42:03 10° NNW 23:46:05 47° NNW 23:46:05 47° NNW
Cosmos 2360 Rocket 3.3 23:45:49 10° NNW 23:50:16 38° NNE 23:50:16 38° NNE
